Weather History for EIDW - January, 2014

Change the Weather History Date:

Wednesday, January 29, 2014

  Actual Average Record
Temperature  
Mean Temperature 40 °F -  
Max Temperature 43 °F 46 °F 56 °F (2013)
Min Temperature 38 °F 36 °F 30 °F (2001)
Degree Days  
Heating Degree Days 24    
Moisture  
Dew Point 39 °F    
Average Humidity 91    
Maximum Humidity 100    
Minimum Humidity 76    
Precipitation  
Precipitation 0.43 in 0.07 in - ()
Sea Level Pressure  
Sea Level Pressure 29.38 in    
Wind  
Wind Speed 15 mph ()    
Max Wind Speed 22 mph    
Max Gust Speed -    
Visibility 7.3 miles    
Events Rain , Snow    
Averages and records for this station are not official NWS values.
T = Trace of Precipitation, MM = Missing Value Source: Averaged Metar Reports

Daily Weather History Graph

Daily Weather History Graph

Search for Another Location

Airport or City:

Trip Planner

Search our weather history database for the weather conditions in past years. The results will help you decide how hot, cold, wet, or windy it might be!

Date:

Astronomy

Jan. 29, 2014 Rise Set
Actual Time 8:15 AM GMT 5:02 PM GMT
Civil Twilight 7:36 AM GMT 5:40 PM GMT
Nautical Twilight 6:54 AM GMT 6:23 PM GMT
Astronomical Twilight 6:13 AM GMT 7:04 PM GMT
Moon 6:42 AM GMT (1/29) 3:44 PM GMT (1/29)
Length of Visible Light 10h 04m
Length of Day
8h 47m
Waning Crescent, 3% of the Moon is Illuminated
Jan 29
Waning Crescent
Jan 30
New
Feb 6
First Quarter
Feb 14
Full
Feb 22
Last Quarter

Hourly Weather History & Observations

Time (GMT) Temp. Windchill Dew Point Humidity Pressure Visibility Wind Dir Wind Speed Gust Speed Precip Events Conditions
12:00 AM 40 °F - 37 °F 84% 29.15 in 9 mi NW 17.9 mph - - Snow Light Snow
12:00 AM 39.2 °F 30.5 °F 37.4 °F 93% 29.12 in 6.2 mi NW 16.1 mph - N/A Rain Light Rain
12:30 AM 39.2 °F 29.8 °F 37.4 °F 93% 29.15 in 6.2 mi NW 18.4 mph - N/A Rain Light Rain
1:00 AM 40 °F - 38 °F 88% 29.17 in 11 mi NNW 20.1 mph - - Snow Light Snow
1:00 AM 39.2 °F 29.6 °F 37.4 °F 93% 29.15 in 6.2 mi NNW 19.6 mph - N/A Rain Light Rain
1:30 AM 39.2 °F 29.8 °F 37.4 °F 93% 29.18 in 6.2 mi NW 18.4 mph - N/A Rain Light Rain
2:00 AM 40 °F - 38 °F 90% 29.20 in 11 mi NNW 20.1 mph - - Snow Light Snow
2:00 AM 39.2 °F 29.3 °F 37.4 °F 93% 29.18 in 6.2 mi NNW 20.7 mph - N/A Rain Light Rain
2:30 AM 39.2 °F 29.3 °F 37.4 °F 93% 29.18 in 6.2 mi NNW 20.7 mph - N/A Rain Light Rain
3:00 AM 40 °F - 38 °F 88% 29.22 in 9 mi NNW 17.9 mph - - Snow Light Snow
3:00 AM 41.0 °F 32.2 °F 37.4 °F 87% 29.21 in 6.2 mi NNW 18.4 mph - N/A Rain Light Rain
3:30 AM 41.0 °F 31.9 °F 37.4 °F 87% 29.21 in 6.2 mi NNW 19.6 mph - N/A Rain Light Rain
4:00 AM 40 °F - 38 °F 90% 29.24 in 11 mi NNW 20.1 mph - - Rain Light Rain
4:00 AM 39.2 °F 29.0 °F 37.4 °F 93% 29.21 in 6.2 mi NNW 21.9 mph - N/A Rain Light Rain
4:30 AM 41.0 °F 31.6 °F 39.2 °F 93% 29.21 in 6.2 mi NNW 20.7 mph - N/A   Mostly Cloudy
5:00 AM 40 °F - 38 °F 90% 29.26 in 16 mi NW 17.9 mph - - Rain Light Rain
5:00 AM 39.2 °F 29.8 °F 37.4 °F 93% 29.24 in 6.2 mi NW 18.4 mph - N/A   Mostly Cloudy
5:30 AM 39.2 °F 29.8 °F 37.4 °F 93% 29.24 in 6.2 mi NNW 18.4 mph - N/A   Mostly Cloudy
6:00 AM 40 °F - 38 °F 89% 29.28 in 12 mi NNW 20.1 mph - - Rain Light Rain
6:00 AM 39.2 °F 29.8 °F 37.4 °F 93% 29.24 in 6.2 mi NNW 18.4 mph - N/A Rain Light Rain
6:30 AM 39.2 °F 30.2 °F 37.4 °F 93% 29.27 in 6.2 mi NNW 17.3 mph - N/A Rain Light Rain
7:00 AM 40 °F - 38 °F 91% 29.30 in 12 mi NNW 17.9 mph - - Rain Light Rain
7:00 AM 39.2 °F 30.2 °F 39.2 °F 100% 29.27 in 6.2 mi NNW 17.3 mph - N/A Rain Light Rain
7:30 AM 39.2 °F 30.5 °F 39.2 °F 100% 29.30 in 6.2 mi NNW 16.1 mph - N/A Rain Light Rain
8:00 AM 40 °F - 38 °F 91% 29.32 in 12 mi NNW 15.7 mph - - Rain Light Rain
8:00 AM 39.2 °F 30.5 °F 39.2 °F 100% 29.30 in 6.2 mi NNW 16.1 mph - N/A   Mostly Cloudy
8:30 AM 39.2 °F 30.8 °F 39.2 °F 100% 29.30 in 6.2 mi NW 15.0 mph - N/A Rain Light Rain
9:00 AM 40 °F - 39 °F 93% 29.35 in 4 mi NW 15.7 mph - - Rain Light Rain
9:00 AM 39.2 °F 30.8 °F 39.2 °F 100% 29.33 in 3.7 mi NW 15.0 mph - N/A Rain Light Rain
9:30 AM 39.2 °F 30.5 °F 39.2 °F 100% 29.33 in 2.2 mi NNW 16.1 mph - N/A Rain Rain
10:00 AM 40 °F - 39 °F 95% 29.37 in 4 mi NW 15.7 mph - - Rain Heavy Rain
10:00 AM 39.2 °F 30.5 °F 39.2 °F 100% 29.36 in 4.3 mi NW 16.1 mph - N/A Rain Rain
10:30 AM 39.2 °F 30.8 °F 39.2 °F 100% 29.36 in 3.1 mi NW 15.0 mph - N/A Rain Light Rain Showers
11:00 AM 40 °F - 39 °F 97% 29.39 in 3 mi NW 15.7 mph - - Rain Heavy Rain Showers
11:00 AM 41.0 °F 33.1 °F 39.2 °F 93% 29.36 in 3.1 mi NW 15.0 mph - N/A Rain Rain Showers
11:30 AM 41.0 °F 33.5 °F 39.2 °F 93% 29.39 in 4.3 mi NW 13.8 mph - N/A Rain Light Rain Showers
12:00 PM 41 °F - 40 °F 94% 29.40 in 4 mi NW 11.2 mph - - Rain Light Rain Showers
12:00 PM 41.0 °F 34.7 °F 39.2 °F 93% 29.39 in 3.7 mi NW 10.4 mph - N/A Rain Light Rain Showers
12:30 PM 41.0 °F 37.1 °F 41.0 °F 100% 29.39 in 5.6 mi North 5.8 mph - N/A Rain Light Rain Showers
1:00 PM 43 °F - 41 °F 90% 29.41 in 11 mi ENE 11.2 mph - - Rain Light Rain Showers
1:00 PM 42.8 °F 37.0 °F 41.0 °F 93% 29.39 in 6.2 mi ENE 10.4 mph - N/A   Mostly Cloudy
1:30 PM 42.8 °F 36.6 °F 41.0 °F 93% 29.42 in 6.2 mi East 11.5 mph - N/A Rain Light Rain Showers
2:00 PM 42 °F - 40 °F 88% 29.44 in 9 mi East 8.9 mph - - Rain Light Rain Showers
2:00 PM 42.8 °F 37.5 °F 41.0 °F 93% 29.42 in 6.2 mi East 9.2 mph - N/A   Mostly Cloudy
2:30 PM 41.0 °F 34.3 °F 39.2 °F 93% 29.44 in 6.2 mi East 11.5 mph - N/A Rain Light Rain Showers
3:00 PM 41 °F - 40 °F 94% 29.47 in 6 mi NE 4.5 mph - - Rain Light Rain Showers
3:00 PM 41.0 °F 38.0 °F 39.2 °F 93% 29.44 in 5.6 mi ENE 4.6 mph - N/A Rain Light Rain Showers
3:30 PM 41.0 °F 38.0 °F 39.2 °F 93% 29.44 in 6.2 mi NE 4.6 mph - N/A Rain Light Rain Showers
4:00 PM 42 °F - 41 °F 93% 29.47 in 11 mi East 8.9 mph - - Rain Light Rain Showers
4:00 PM 42.8 °F 38.0 °F 41.0 °F 93% 29.44 in 6.2 mi ENE 8.1 mph - N/A   Mostly Cloudy
4:30 PM 42.8 °F 35.8 °F 41.0 °F 93% 29.47 in 6.2 mi East 13.8 mph - N/A   Mostly Cloudy
5:00 PM 43 °F - 40 °F 85% 29.51 in 12 mi East 13.4 mph - -   Mostly Cloudy
5:00 PM 42.8 °F 36.2 °F 41.0 °F 93% 29.50 in 6.2 mi East 12.7 mph - N/A   Mostly Cloudy
5:30 PM 42.8 °F 36.2 °F 39.2 °F 87% 29.50 in 6.2 mi East 12.7 mph - N/A   Mostly Cloudy
6:00 PM 43 °F - 40 °F 85% 29.53 in 12 mi East 11.2 mph - -   Partly Cloudy
6:00 PM 42.8 °F 37.0 °F 39.2 °F 87% 29.50 in 6.2 mi East 10.4 mph - N/A   Mostly Cloudy
6:30 PM 42.8 °F 35.8 °F 41.0 °F 93% 29.50 in 6.2 mi East 13.8 mph - N/A   Mostly Cloudy
7:00 PM 43 °F - 39 °F 81% 29.56 in 12 mi East 13.4 mph - - Rain Light Rain Showers
7:00 PM 42.8 °F 36.2 °F 39.2 °F 87% 29.53 in 6.2 mi East 12.7 mph - N/A   Mostly Cloudy
7:30 PM 42.8 °F 37.0 °F 39.2 °F 87% 29.56 in 6.2 mi East 10.4 mph - N/A   Mostly Cloudy
8:00 PM 42 °F - 39 °F 83% 29.59 in 12 mi East 13.4 mph - - Rain Light Rain Showers
8:00 PM 42.8 °F 36.2 °F 39.2 °F 87% 29.56 in 6.2 mi East 12.7 mph - N/A   Mostly Cloudy
8:30 PM 42.8 °F 36.2 °F 39.2 °F 87% 29.56 in 6.2 mi East 12.7 mph - N/A Rain Light Rain Showers
9:00 PM 43 °F - 38 °F 78% 29.61 in 12 mi East 13.4 mph - - Rain Light Rain Showers
9:00 PM 42.8 °F 36.2 °F 39.2 °F 87% 29.59 in 6.2 mi East 12.7 mph - N/A   Mostly Cloudy
9:30 PM 42.8 °F 35.1 °F 37.4 °F 81% 29.59 in 6.2 mi East 16.1 mph - N/A   Mostly Cloudy
10:00 PM 42 °F - 37 °F 76% 29.61 in 16 mi East 13.4 mph - -   Overcast
10:00 PM 42.8 °F 35.8 °F 37.4 °F 81% 29.59 in 6.2 mi East 13.8 mph - N/A   Mostly Cloudy
10:30 PM 42.8 °F 36.2 °F 37.4 °F 81% 29.59 in 6.2 mi East 12.7 mph - N/A   Mostly Cloudy
11:00 PM 41 °F - 37 °F 81% 29.64 in 16 mi East 13.4 mph - - Rain Light Drizzle
11:00 PM 41.0 °F 33.9 °F 37.4 °F 87% 29.62 in 6.2 mi East 12.7 mph - N/A   Mostly Cloudy
11:30 PM 41.0 °F 33.9 °F 37.4 °F 87% 29.62 in 6.2 mi East 12.7 mph - N/A   Light Drizzle